Regional Weather Roundup
Issued by NWS San Diego, CA

Home | Current Version | Previous Version | Text Only | Print | Product List | Glossary On
Versions: 1 2 3 4 5 6 7 8 9 10 11 12 13 14 15 16 17 18 19 20 21 22 23 24 25 26 27 28 29 30 31 32 33 34 35 36 37 38 39 40 41 42 43 44 45 46 47 48 49 50
000
ASUS46 KSGX 050011
RWRSGX

SAN DIEGO HOURLY WEATHER ROUNDUP
NATIONAL WEATHER SERVICE SAN DIEGO CA
400 PM PST WED MAR 04 2015

NOTE: "FAIR" INDICATES FEW OR NO CLOUDS BELOW 12,000 FEET WITH NO
SIGNIFICANT WEATHER AND/OR OBSTRUCTIONS TO VISIBILITY.

CAZ042-043-060-061-PZZ750-775-050100-

GREATER SAN DIEGO AREA

CITY           SKY/WX    TMP DP  RH WIND       PRES   REMARKS
LINDBERGH FLD  MOSUNNY   66  47  50 NW8       30.08S
NATIONAL CITY    N/A     68  42  38 N6        30.07S
CHULA VISTA      N/A     68  44  41 W6        30.00S
IMPERIAL BEACH MOSUNNY   64  49  57 W13       30.07S
BROWN FIELD    SUNNY     65  41  41 W7        30.06R
MIRAMAR MCAS   SUNNY     67  39  35 W9        30.06S
MONTGOMERY FLD SUNNY     68  40  35 W8        30.06S

$$

NORTH SAN DIEGO COUNTY

CITY           SKY/WX    TMP DP  RH WIND       PRES   REMARKS
CAMP PENDLETON MOSUNNY   67  36  31 W8        30.06S
OCEANSIDE AP   SUNNY     65  48  54 W9        30.05S
OCEANSIDE HBR    N/A     64  55  73 W7        30.09S
VISTA            N/A     67  46  47 W5        30.05S
CARLSBAD       SUNNY     64  50  60 W7        30.05S
DEL MAR          N/A     63  55  75 CALM      30.09S
LA JOLLA SCRIP   N/A     63  25  23 CALM      30.05S
FALLBROOK        N/A     68  42  39 SW5       30.05S
ESCONDIDO        N/A     67  41  39 SW10      30.08R
POWAY            N/A     69  38  32 N1        30.08S

$$

EAST SAN DIEGO COUNTY

CITY           SKY/WX    TMP DP  RH WIND       PRES   REMARKS
RAMONA         SUNNY     62  37  39 W15       30.06R
SANTEE LAKES     N/A     68  38  34 W9        30.07R
LA MESA          N/A     67  35  31 NW8       30.01S
JAMUL            N/A     66  43  43 W3        30.07S
DESCANSO N       N/A     59  38  45 CALM      30.02S
MT. LAGUNA OBS   N/A     41  10  27 N3        29.68S
CAMPO            N/A     58  21  24 E15       30.04R

$$

ORANGE COUNTY AND THE LOS ANGELES BASIN

CITY           SKY/WX    TMP DP  RH WIND       PRES   REMARKS
JOHN WAYNE AP  MOSUNNY   72  35  25 SW9       30.06R
LAKE FOREST FR   N/A     68  33  27 SW6       29.98R
SANTA ANA        N/A     74  39  28 SW1       30.01R
LOS ALAMITOS   MOSUNNY   70  36  28 SW13      30.06S
FULLERTON      SUNNY     73  29  19 SW9G16    30.04S
LONG BEACH     SUNNY     72  31  22 W10       30.06S
L.A. AP        MOSUNNY   64  47  53 W13       30.08R
L.A. DOWNTOWN  SUNNY     69  37  30 W7        30.06S

$$

THE INLAND EMPIRE

CITY           SKY/WX    TMP DP  RH WIND       PRES   REMARKS
CORONA         SUNNY     72  23  16 CALM      30.06S
CHINO          MOSUNNY   72  27  18 S5        30.07R
ONTARIO        MOSUNNY   70  27  20 CALM      30.06S
SAN BERNARDINO MOSUNNY   68  18  14 SW3       30.06S
RIVERSIDE AP   SUNNY     72  10   9 N9        30.06S
RIV CYN CREST    N/A     73  33  23 NE5         N/A
MORENO VALLEY    N/A     68  31  25 W3        29.26S
MARCH ARB      SUNNY     67  22  18 NW3       30.06S
HORSETHIEF CYN   N/A     67  17  14 N3        30.07S
PERRIS           N/A     68  28  22 W5          N/A
MENIFEE          N/A     69  30  23 SW6       30.14F
HEMET EAST       N/A     64  23  21 CALM      30.10S
FRENCH VALLEY  FAIR      68  28  22 N7        30.06S
TEMECULA         N/A     68  34  27 E3        30.00R

$$

SAN BERNARDINO AND RIVERSIDE COUNTY MOUNTAINS

CITY           SKY/WX    TMP DP  RH WIND       PRES   REMARKS
BIG BEAR AP    SUNNY     41   0  17 NE10      30.16S
ANGELUS OAKS     N/A     49  28  44 CALM      30.12R
PINE COVE        N/A     44  31  59 CALM      30.20S

$$

SOUTHERN DESERT INCLUDING THE COACHELLA VALLEY

CITY           SKY/WX    TMP DP  RH WIND       PRES   REMARKS
PALM SPRINGS   SUNNY     72  10   9 VRB3      30.08S
THOUSAND PALMS   N/A     73  13  10 NE6       30.05S
PALM DESERT      N/A     75  17  11 N2        31.86S
THERMAL        SUNNY     74  11   9 W8        30.04S
BLYTHE         SUNNY     68  24  19 N10       30.07S
IMPERIAL AP    SUNNY     70  24  17 NW7       30.06S
EL CENTRO NAS  MOSUNNY   70  22  16 N5        30.07S
YUMA AZ        SUNNY     69  24  18 N13       30.06S
MEXICALI       SUNNY     68  25  19 NW8       30.07

$$

UPPER DESERT

CITY           SKY/WX    TMP DP  RH WIND       PRES   REMARKS
VICTORVILLE AP   N/A     59   9  13 N6        30.14F
HESPERIA         N/A     58  12  16 N2        30.30S
APPLE VALLEY     N/A     59   6  12 N2        30.14S
PALMDALE       SUNNY     61  13  15 E9        30.13F
LANCASTER      SUNNY     60  13  15 E10       30.14F
EDWARDS AFB    PTSUNNY   61  14  15 CALM      30.12F
DAGGETT        SUNNY     62   7  11 CALM      30.14S
29 PALMS N     MOSUNNY   61  12  14 N13       30.18R

$$

REGIONAL REPORTS

CITY           SKY/WX    TMP DP  RH WIND       PRES   REMARKS
SANTA BARBARA  MOSUNNY   66  40  38 W8        30.09R
SANDBERG       SUNNY     53  18  25 E8        30.16S
MT. WILSON       N/A     52  34  50 MISG        N/A
LAS VEGAS NV   SUNNY     59  13  16 NE9       30.12S
PHOENIX AZ     MOSUNNY   68  29  23 N7        30.00R
TIJUANA        SUNNY     64  37  36 NW12      30.09R
ENSENADA NW      N/A     68  32  26 W12       30.01S

$$

OFFSHORE ISLANDS

CITY           SKY/WX    TMP DP  RH WIND       PRES   REMARKS
CATALINA ARPT  SUNNY     60  38  43 W7        30.10S
SAN NICOLAS IS MOSUNNY   62  51  67 CALM      30.09S

$$

MARINE AND OFFSHORE BUOY REPORTS

STATION/POSITION SKY/WX   TEMP    WIND        PRES    SWELL
                          AIR SEA DIR/SP/G            HT/PER/DIR
                          (F)     (DEG/KT/KT) (MB)    (FT/S/D)
TANNER BANKS               61 62  340/  8/  8 1019.0R   7/210/16
S CLEMENTE BASIN           62 64  290/  8/ 10 1018.5F   5/220/16
SAN NICOLAS IS.               64                N/A     3/190/15
SO. S. ROSA ISLA           60 62  240/  4/  6 1018.5F   5/16
W. S. BARBARA CH           61 60  270/  6/  8 1018.8S   5/200/16
S. MONICA BASIN            62 64  230/  8/ 10 1018.7F   3/200/16
S PEDRO CHANNEL               63                N/A     2/180/17
DANA POINT                    62                N/A     3/180/17
CMP PENDLETON NS              62                N/A     3/220/17
TORREY PINES OTR              62                N/A     3/210/17
LA JOLLA 1                 64 62  300/  5/  6 1018.4F
MISSION BAY BUOY              62                N/A     3/200/15
SAN DIEGO BAY                 65              1018.6F
POINT LOMA SOUTH              64                N/A     3/180/17

$$



USA.gov is the U.S. government's official web portal to all federal, state and local government web resources and services.